When you browse on this site, cookies collect data to enhance your experience and personalize the content and advertising you see.
Visit our Privacy Policy to learn more. By continuing to use the site, you agree to this use of cookies and data.
  • In Portugal
  • List of Countries
  • For 7 days
  • Water Temperature
  • Weather Map
  • Weather Widgets
  • user-avatar
    Login

    Hourly Weather Swansea

    Today, 23 September, Monday

    Time Temperature Precipitation Wind Pressure Humidity
    00:00 +13°C° 0 mm 4 mps 753 mmHg 96%
    01:00 +13°C° 0.2 mm 4 mps 753 mmHg 95%
    02:00 +13°C° 0.2 mm 5 mps 753 mmHg 95%
    03:00 +13°C° 0.2 mm 5 mps 753 mmHg 94%
    04:00 +12°C° 0 mm 5 mps 754 mmHg 94%
    05:00 +12°C° 0 mm 5 mps 754 mmHg 93%
    06:00 +12°C° 0 mm 4 mps 754 mmHg 93%
    07:00 +13°C° 0.1 mm 5 mps 754 mmHg 92%
    08:00 +14°C° 0.1 mm 6 mps 754 mmHg 90%
    09:00 +15°C° 0.1 mm 7 mps 754 mmHg 89%
    10:00 +15°C° 0.1 mm 7 mps 754 mmHg 86%
    11:00 +16°C° 0.1 mm 8 mps 753 mmHg 84%
    12:00 +16°C° 0 mm 8 mps 753 mmHg 83%
    13:00 +16°C° 1.8 mm 9 mps 752 mmHg 87%
    14:00 +14°C° 1.8 mm 10 mps 751 mmHg 91%
    15:00 +14°C° 1.8 mm 11 mps 751 mmHg 95%
    16:00 +15°C° 0.5 mm 9 mps 751 mmHg 95%
    17:00 +16°C° 0.5 mm 8 mps 751 mmHg 96%
    18:00 +17°C° 0.5 mm 6 mps 751 mmHg 96%
    19:00 +16°C° 0.6 mm 6 mps 751 mmHg 97%
    20:00 +16°C° 0.6 mm 6 mps 751 mmHg 97%
    21:00 +16°C° 0.6 mm 6 mps 751 mmHg 97%
    22:00 +16°C° 0.2 mm 6 mps 751 mmHg 97%
    23:00 +16°C° 0.2 mm 6 mps 750 mmHg 97%

    Tomorrow, 24 September, Tuesday

    Time Temperature Precipitation Wind Pressure Humidity
    00:00 +16°C° 0.2 mm 6 mps 750 mmHg 97%
    01:00 +16°C° 0.7 mm 5 mps 750 mmHg 97%
    02:00 +16°C° 0.7 mm 5 mps 749 mmHg 97%
    03:00 +16°C° 0.7 mm 5 mps 748 mmHg 97%
    04:00 +16°C° 1 mm 5 mps 748 mmHg 97%
    05:00 +15°C° 1 mm 4 mps 747 mmHg 96%
    06:00 +15°C° 1 mm 4 mps 747 mmHg 95%
    07:00 +15°C° 0.5 mm 5 mps 747 mmHg 95%
    08:00 +15°C° 0.5 mm 5 mps 747 mmHg 94%
    09:00 +16°C° 0.5 mm 6 mps 747 mmHg 93%
    10:00 +16°C° 0.1 mm 7 mps 748 mmHg 89%
    11:00 +17°C° 0.1 mm 7 mps 748 mmHg 86%
    12:00 +17°C° 0.1 mm 8 mps 748 mmHg 83%
    13:00 +16°C° 0.3 mm 8 mps 748 mmHg 85%
    14:00 +16°C° 0.3 mm 9 mps 748 mmHg 87%
    15:00 +15°C° 0.3 mm 9 mps 748 mmHg 89%
    16:00 +15°C° 0.4 mm 9 mps 748 mmHg 90%
    17:00 +15°C° 0.4 mm 8 mps 747 mmHg 91%
    18:00 +13°C° 0.4 mm 8 mps 747 mmHg 93%
    19:00 +13°C° 1.7 mm 8 mps 746 mmHg 94%
    20:00 +15°C° 1.7 mm 9 mps 746 mmHg 95%
    21:00 +15°C° 1.7 mm 9 mps 746 mmHg 96%
    22:00 +15°C° 2.1 mm 9 mps 745 mmHg 96%
    23:00 +15°C° 2.1 mm 9 mps 745 mmHg 96%

    Day after tomorrow, 25 September, Wednesday

    Time Temperature Precipitation Wind Pressure Humidity
    00:00 +15°C° 2.1 mm 9 mps 744 mmHg 96%
    01:00 +15°C° 0.4 mm 8 mps 745 mmHg 96%
    02:00 +15°C° 0.4 mm 8 mps 745 mmHg 96%
    03:00 +15°C° 0.4 mm 8 mps 745 mmHg 97%
    04:00 +15°C° 0.2 mm 8 mps 745 mmHg 96%
    05:00 +15°C° 0.2 mm 8 mps 746 mmHg 96%
    06:00 +15°C° 0.2 mm 8 mps 746 mmHg 96%
    07:00 +15°C° 0.1 mm 8 mps 747 mmHg 94%
    08:00 +15°C° 0.1 mm 7 mps 748 mmHg 92%
    09:00 +16°C° 0.1 mm 7 mps 749 mmHg 91%
    10:00 +16°C° 0.1 mm 7 mps 749 mmHg 89%
    11:00 +17°C° 0.1 mm 7 mps 750 mmHg 87%
    12:00 +17°C° 0.1 mm 6 mps 750 mmHg 84%
    13:00 +17°C° 0.1 mm 6 mps 750 mmHg 85%
    14:00 +17°C° 0.1 mm 6 mps 751 mmHg 85%
    15:00 +17°C° 0.1 mm 6 mps 751 mmHg 86%
    16:00 +16°C° 0.1 mm 6 mps 751 mmHg 89%
    17:00 +16°C° 0.1 mm 6 mps 751 mmHg 92%
    18:00 +15°C° 0.1 mm 5 mps 751 mmHg 95%
    19:00 +15°C° 0.1 mm 6 mps 751 mmHg 96%
    20:00 +16°C° 0.1 mm 6 mps 751 mmHg 97%
    21:00 +16°C° 0.1 mm 6 mps 751 mmHg 97%
    22:00 +16°C° 0.3 mm 7 mps 751 mmHg 97%
    23:00 +16°C° 0.3 mm 7 mps 750 mmHg 97%

    26 September, Thursday

    Time Temperature Precipitation Wind Pressure Humidity
    00:00 +16°C° 0.3 mm 8 mps 750 mmHg 97%
    01:00 +16°C° 1.4 mm 8 mps 750 mmHg 97%
    02:00 +16°C° 1.4 mm 9 mps 750 mmHg 97%
    03:00 +16°C° 1.4 mm 9 mps 750 mmHg 97%
    04:00 +16°C° 1.3 mm 8 mps 750 mmHg 96%
    05:00 +16°C° 1.3 mm 8 mps 750 mmHg 95%
    06:00 +15°C° 1.3 mm 7 mps 750 mmHg 94%
    07:00 +15°C° 0.1 mm 7 mps 751 mmHg 91%
    08:00 +15°C° 0.1 mm 6 mps 751 mmHg 88%
    09:00 +15°C° 0.1 mm 6 mps 751 mmHg 85%
    10:00 +15°C° 0.1 mm 7 mps 752 mmHg 83%
    11:00 +15°C° 0.1 mm 7 mps 752 mmHg 81%
    12:00 +15°C° 0.1 mm 8 mps 752 mmHg 80%
    13:00 +15°C° 0.2 mm 8 mps 752 mmHg 80%
    14:00 +15°C° 0.2 mm 8 mps 752 mmHg 80%
    15:00 +15°C° 0.2 mm 8 mps 752 mmHg 80%
    16:00 +13°C° 0.2 mm 8 mps 752 mmHg 82%
    17:00 +12°C° 0.2 mm 7 mps 752 mmHg 84%
    18:00 +12°C° 0.2 mm 7 mps 752 mmHg 86%
    19:00 +12°C° 0.3 mm 7 mps 753 mmHg 87%
    20:00 +12°C° 0.3 mm 7 mps 753 mmHg 87%
    21:00 +11°C° 0.3 mm 7 mps 753 mmHg 88%
    22:00 +11°C° 0.3 mm 7 mps 753 mmHg 88%
    23:00 +11°C° 0.3 mm 8 mps 753 mmHg 89%

    27 September, Friday

    Time Temperature Precipitation Wind Pressure Humidity
    00:00 +11°C° 0.3 mm 8 mps 753 mmHg 89%
    01:00 +11°C° 0.4 mm 8 mps 753 mmHg 89%
    02:00 +11°C° 0.4 mm 8 mps 753 mmHg 88%
    03:00 +11°C° 0.4 mm 8 mps 752 mmHg 88%
    04:00 +12°C° 0.4 mm 9 mps 752 mmHg 89%
    05:00 +12°C° 0.4 mm 9 mps 752 mmHg 90%
    06:00 +12°C° 0.4 mm 9 mps 752 mmHg 92%
    07:00 +12°C° 0.6 mm 9 mps 752 mmHg 90%
    08:00 +13°C° 0.6 mm 9 mps 752 mmHg 89%
    09:00 +13°C° 0.6 mm 9 mps 752 mmHg 87%
    10:00 +13°C° 0.4 mm 9 mps 752 mmHg 86%
    11:00 +13°C° 0.4 mm 10 mps 753 mmHg 85%
    12:00 +14°C° 0.4 mm 10 mps 753 mmHg 83%
    13:00 +13°C° 0.4 mm 10 mps 753 mmHg 83%
    14:00 +13°C° 0.4 mm 10 mps 753 mmHg 84%
    15:00 +13°C° 0.4 mm 10 mps 752 mmHg 84%
    16:00 +13°C° 0.3 mm 10 mps 753 mmHg 85%
    17:00 +12°C° 0.3 mm 10 mps 753 mmHg 87%
    18:00 +12°C° 0.3 mm 10 mps 753 mmHg 88%
    19:00 +12°C° 0.1 mm 9 mps 753 mmHg 88%
    20:00 +12°C° 0.1 mm 9 mps 754 mmHg 89%
    21:00 +12°C° 0.1 mm 9 mps 754 mmHg 89%
    22:00 +12°C° 0.3 mm 9 mps 754 mmHg 89%
    23:00 +12°C° 0.3 mm 9 mps 754 mmHg 90%

    28 September, Saturday

    Time Temperature Precipitation Wind Pressure Humidity
    00:00 +12°C° 0.3 mm 9 mps 754 mmHg 90%
    01:00 +12°C° 0.4 mm 9 mps 754 mmHg 91%
    02:00 +12°C° 0.4 mm 9 mps 754 mmHg 91%
    03:00 +12°C° 0.4 mm 9 mps 754 mmHg 92%
    04:00 +12°C° 0.3 mm 9 mps 755 mmHg 91%
    05:00 +12°C° 0.3 mm 10 mps 755 mmHg 91%
    06:00 +12°C° 0.3 mm 10 mps 755 mmHg 90%
    07:00 +12°C° 0.5 mm 10 mps 755 mmHg 90%
    08:00 +13°C° 0.5 mm 10 mps 755 mmHg 89%
    09:00 +13°C° 0.5 mm 9 mps 755 mmHg 88%
    10:00 +13°C° 0.4 mm 9 mps 755 mmHg 88%
    11:00 +13°C° 0.4 mm 9 mps 755 mmHg 88%
    12:00 +13°C° 0.4 mm 9 mps 755 mmHg 88%
    13:00 +13°C° 0.3 mm 9 mps 755 mmHg 88%
    14:00 +13°C° 0.3 mm 9 mps 755 mmHg 89%
    15:00 +13°C° 0.3 mm 9 mps 755 mmHg 89%
    16:00 +12°C° 0.3 mm 8 mps 754 mmHg 90%
    17:00 +12°C° 0.3 mm 8 mps 754 mmHg 90%
    18:00 +12°C° 0.3 mm 7 mps 754 mmHg 90%
    19:00 +12°C° 0.6 mm 7 mps 754 mmHg 91%
    20:00 +12°C° 0.6 mm 7 mps 754 mmHg 92%
    21:00 +11°C° 0.6 mm 6 mps 754 mmHg 92%
    22:00 +11°C° 0.4 mm 6 mps 754 mmHg 92%
    23:00 +11°C° 0.4 mm 6 mps 754 mmHg 92%
    Show more